STARLINK-32414, 61667

Orbit data source: Space-Track

STARLINK-32414, 61667 is a payload satellite owned by SpaceX/Seattle (US) in LEO that was launched on Sat, 26 Oct 2024 UTC via an FALCON 9 launch vehicle from the Air Force Eastern Test Range (AFETR). Payload-class satellites include a variety of spacecraft equipped with specific instruments for various scientific and technological missions. These include communications satellites like Starlink; space stations such as the ISS; scientific satellites like the Hubble; Earth observation satellites from companies like Planet Labs, Umbra, and HawkEye 360; GPS; miniature CubeSats for education and research; and military/defense satellites.

Loading next visibility...
Identifier
61667, 2024-193G
Orbit
LEO
Country
Flag of USUS
Related business
Manufacturer
SpaceX/Seattle
Mission
Operational Commercial Communications
Bus & Motor
STARLINK V2M, Unknown motor
Mass
730 kg wet, ~700 kg dry
Launch date (UTC)
2024-10-26 (10 months ago)
Launch vehicle
FALCON 9
Launch site
Air Force Eastern Test Range (AFETR)
Object type
Payload
Rocket body
Debris
Shape & HBR
Box + 2 Pan, 14.5 m
Radar Cross Section
36.964 m², Large (>1 m²)

Expand to show TLE details & history
Last TLE update: 14 hours ago

TLE from 14 hours ago
0 STARLINK-32414
1 61667U 24193G   25243.36147428  .00001773  00000-0  71989-4 0  9992
2 61667  53.1595 255.2703 0001928  81.9196 278.2024 15.30203643 47388
Epoch: 2025-08-31T08:40Z
TLE epoch observation values (Epoch: 2025-08-31T08:40:31.377Z)
Latitude
0.00001°
Longitude
145.35705°
Altitude
475.916 km
Speed
7.629 km/s
True Right ascension
17h 01m 04s
True Declination
0° 00' 00"
Sunlit
Object was in daylight at epoch
Visualization orbit readout
Latitude
Unknown
Longitude
Unknown
Altitude
Unknown
Speed
Unknown
Apparent Right ascension
Unknown
Apparent Declination
Unknown
Sunlit
N/A
Visualization observer readout
Local Sidereal Time
14:10:55
Azimuth
Unknown
Elevation
Unknown
Doppler factor
Unknown
Orbital elements
Apogee altitude
476.782 km
Perigee altitude
474.139 km
Semi-major axis
6,853.598 km
Eccentricity
0.00019
Inclination
53.1595°
RAAN
255.2703°
Arg. of periapsis
81.9196°
True anomaly
278.18053°
Mean anomaly
278.2024°
Eccentric anomaly
278.19147°
Mean motion
3.8253 °/min
Orbital period
94.11 mins
BSTAR
0.000071989
Loading maneuver chart data...
Computing Atmospheric mass density...
Loading historical data...
Loading historical data...
Loading historical data...
Loading historical data...
Loading historical data...
Loading historical data...
Loading historical data...

Documentation

Showing up to 5 results
|